Location: Sagn�
(15.2046°N, 12.7898°W)
Time: 13:12:14
(UTC+00:00)

Cosmos 1943 - Pass Details

Date: 08 May 2021
Orbit: 833 x 850 km, 71.0° (Epoch: 14 June)

Event Time Altitude Azimuth Distance (km) Brightness Sun altitude
Rises 21:15:33 0° 337° (NNW) 3,389 7.1 -28.4°
Reaches altitude 10° 21:18:01 10° 333° (NNW) 2,456 6.3 -28.9°
Maximum altitude 21:23:32 58° 255° (WSW) 974 3.6 -30.1°
Enters shadow 21:23:50 58° 241° (WSW) 982 3.5 -30.1°
